Hourly Data Report for October 01, 2017

All times are specified in Local Standard Time (LST). Add 1 hour to adjust for Daylight Saving Time where and when it is observed.

ESQUIMALT HARBOUR
BRITISH COLUMBIA

48°25'55.100" N
123°26'21.600" W
3.00 m
1012710
71798
WPF

Download Data

Hourly Data (October 2017)
Hourly Data Report for October 1, 2017
Temp Definition
°C
Dew Point Temp Definition
°C
Rel Hum Definition
%
Wind Dir Definition
10's deg

Wind Spd Definition
km/h
Visibility Definition
km
Stn Press Definition
kPa
Hmdx Definition


Wind Chill Definition


Weather Definition


TIME
00:00 11.4 9.1 86   0   101.84     LegendNANA
01:00 10.5 8.5 88 35 3   101.86     LegendNANA
02:00 10.0 8.1 88 6 2   101.86     LegendNANA
03:00 9.7 7.6 87 4 5   101.86     LegendNANA
04:00 8.9 7.3 90 35 7   101.90     LegendNANA
05:00 9.5 7.2 85 1 2   101.88     LegendNANA
06:00 9.5 7.1 85 3 6   101.91     LegendNANA
07:00 10.0 7.4 84 31 1   101.95     LegendNANA
08:00 10.5 7.5 82   0   101.97     LegendNANA
09:00 11.3 7.5 78 17 5   101.99     LegendNANA
10:00 11.4 8.9 85 17 11   101.99     LegendNANA
11:00 11.5 9.6 88 17 9   102.00     LegendNANA
12:00 11.4 9.7 89 17 8   102.02     LegendNANA
13:00 11.5 9.1 85 18 6   102.04     LegendNANA
14:00 11.5 9.4 87 20 6   102.00     LegendNANA
15:00 11.8 8.8 82 19 13   101.97     LegendNANA
16:00 11.7 9.0 83 20 12   101.96     LegendNANA
17:00 11.8 8.9 83 18 10   101.99     LegendNANA
18:00 12.4 8.5 77 16 6   102.02     LegendNANA
19:00 11.4 8.6 83 16 3   102.04     LegendNANA
20:00 10.9 8.4 85 22 5   102.04     LegendNANA
21:00 10.1 7.7 85   0   102.01     LegendNANA
22:00 9.8 7.7 87 32 2   101.98     LegendNANA
23:00 8.9 7.2 89 3 5   101.99     LegendNANA

Notes on Data Quality.

Legend

  • E = Estimated
  • M = Missing
  • NA = Not Available
  • ‡ = Partner data that is not subject to review by the National Climate Archives
Date modified: